Weather History for San Angelo, TX

Change the Weather History Date:

Wednesday, November 28, 2012

  Actual Average Record
Temperature  
Mean Temperature 54 °F 50 °F  
Max Temperature 74 °F 64 °F 89 °F (1949)
Min Temperature 33 °F 37 °F 20 °F (1911)
Degree Days  
Heating Degree Days 11 15  
Month to date heating degree days 182 279  
Since 1 July heating degree days 299 370  
Cooling Degree Days 0 0  
Month to date cooling degree days 40 15  
Year to date cooling degree days 3225 2499  
Growing Degree Days 3 (Base 50)    
Moisture  
Dew Point 37 °F    
Average Humidity 55    
Maximum Humidity 76    
Minimum Humidity 33    
Precipitation  
Precipitation 0.00 in 0.03 in 0.87 in (1919)
Month to date precipitation T 1.09  
Year to date precipitation 21.78 20.35  
Snow  
Snow 0.00 in 0.00 in 4.00 in (2001)
Month to date snowfall 0.0 0.3  
Since 1 July snowfall T 0.3  
Snow Depth 0.00 in    
Sea Level Pressure  
Sea Level Pressure 30.28 in    
Wind  
Wind Speed 6 mph (SSW)    
Max Wind Speed 15 mph    
Max Gust Speed 21 mph    
Visibility 10 miles    
Events      
T = Trace of Precipitation, MM = Missing Value Source: NWS Daily Summary

Daily Weather History Graph

Daily Weather History Graph

Search for Another Location

Airport:

Trip Planner

Search our weather history database for the weather conditions in past years. The results will help you decide how hot, cold, wet, or windy it might be!

Date:

Astronomy

Nov. 28, 2012 Rise Set
Actual Time 7:21 AM CST 5:39 PM CST
Civil Twilight 6:54 AM CST 6:05 PM CST
Nautical Twilight 6:24 AM CST 6:35 PM CST
Astronomical Twilight 5:55 AM CST 7:04 PM CST
Moon 5:55 PM CST (11/28) 7:20 AM CST (11/28)
Length of Visible Light 11h 10m
Length of Day
10h 17m
Full, 100% of the Moon is Illuminated
Nov 28
Full
Dec 6
Last Quarter
Dec 13
New
Dec 19
First Quarter
Dec 28
Full

Hourly Weather History & Observations

Time (CST) Temp. Windchill Dew Point Humidity Pressure Visibility Wind Dir Wind Speed Gust Speed Precip Events Conditions
12:51 AM 39.0 °F 35.7 °F 30.0 °F 70% 30.32 in 10.0 mi SSW 4.6 mph - N/A   Clear
1:51 AM 37.0 °F 33.3 °F 28.9 °F 73% 30.32 in 10.0 mi SW 4.6 mph - N/A   Clear
2:51 AM 36.0 °F - 28.9 °F 76% 30.32 in 10.0 mi Calm Calm - N/A   Clear
3:51 AM 36.0 °F - 28.9 °F 76% 30.32 in 10.0 mi Calm Calm - N/A   Clear
4:51 AM 35.1 °F 32.2 °F 28.0 °F 76% 30.33 in 10.0 mi WSW 3.5 mph - N/A   Clear
5:51 AM 35.1 °F - 28.0 °F 76% 30.34 in 10.0 mi Calm Calm - N/A   Clear
6:51 AM 35.1 °F 30.1 °F 28.9 °F 78% 30.35 in 10.0 mi South 5.8 mph - N/A   Clear
7:51 AM 37.0 °F 32.4 °F 30.9 °F 79% 30.37 in 10.0 mi SW 5.8 mph - N/A   Clear
8:51 AM 45.0 °F - 35.1 °F 68% 30.37 in 10.0 mi Calm Calm - N/A   Clear
9:51 AM 52.0 °F - 36.0 °F 54% 30.37 in 10.0 mi Calm Calm - N/A   Clear
10:51 AM 57.9 °F - 37.0 °F 46% 30.36 in 10.0 mi NNE 3.5 mph - N/A   Clear
11:51 AM 66.0 °F - 39.9 °F 38% 30.32 in 10.0 mi Calm Calm - N/A   Clear
12:51 PM 71.1 °F - 42.1 °F 35% 30.27 in 10.0 mi South 10.4 mph - N/A   Clear
1:51 PM 73.0 °F - 43.0 °F 34% 30.24 in 10.0 mi South 13.8 mph - N/A   Clear
2:51 PM 73.9 °F - 42.1 °F 32% 30.21 in 10.0 mi South 13.8 mph - N/A   Clear
3:51 PM 73.9 °F - 42.1 °F 32% 30.20 in 10.0 mi SSW 16.1 mph 20.7 mph N/A   Clear
4:51 PM 72.0 °F - 41.0 °F 33% 30.20 in 10.0 mi South 9.2 mph - N/A   Clear
5:51 PM 66.0 °F - 42.1 °F 42% 30.21 in 10.0 mi South 4.6 mph - N/A   Clear
6:51 PM 61.0 °F - 42.1 °F 50% 30.23 in 10.0 mi South 5.8 mph - N/A   Clear
7:51 PM 52.0 °F - 39.9 °F 63% 30.24 in 10.0 mi SSW 8.1 mph - N/A   Clear
8:51 PM 54.0 °F - 41.0 °F 62% 30.23 in 10.0 mi SSE 6.9 mph - N/A   Clear
9:51 PM 55.9 °F - 42.1 °F 60% 30.22 in 10.0 mi South 11.5 mph - N/A   Clear
10:51 PM 54.0 °F - 42.1 °F 64% 30.22 in 10.0 mi South 11.5 mph - N/A   Clear
11:51 PM 53.1 °F - 42.1 °F 66% 30.22 in 10.0 mi South 10.4 mph - N/A   Clear